Year,Month,Day,Hour,Minute,Value (Times are PST for temperature in C)
2013,04,22,00,00,2.80
2013,04,22,00,01,2.80
2013,04,22,00,02,2.80
2013,04,22,00,03,2.80
2013,04,22,00,04,2.80
2013,04,22,00,05,2.80
2013,04,22,00,06,2.90
2013,04,22,00,07,2.90
2013,04,22,00,08,2.90
2013,04,22,00,09,2.90
2013,04,22,00,10,2.90
2013,04,22,00,11,2.90
2013,04,22,00,12,2.90
2013,04,22,00,13,2.90
2013,04,22,00,14,2.80
2013,04,22,00,15,2.80
2013,04,22,00,16,2.80
2013,04,22,00,17,2.80
2013,04,22,00,18,2.80
2013,04,22,00,19,2.70
2013,04,22,00,20,2.70
2013,04,22,00,21,2.70
2013,04,22,00,22,2.70
2013,04,22,00,23,2.70
2013,04,22,00,24,2.70
2013,04,22,00,25,2.80
2013,04,22,00,26,2.80
2013,04,22,00,27,2.90
2013,04,22,00,28,2.90
2013,04,22,00,29,2.90
2013,04,22,00,30,3.00
2013,04,22,00,31,3.00
2013,04,22,00,32,3.00
2013,04,22,00,33,3.00
2013,04,22,00,34,3.00
2013,04,22,00,35,3.00
2013,04,22,00,36,2.90
2013,04,22,00,37,2.90
2013,04,22,00,38,2.90
2013,04,22,00,39,2.90
2013,04,22,00,40,2.90
2013,04,22,00,41,2.90
2013,04,22,00,42,2.90
2013,04,22,00,43,2.90
2013,04,22,00,44,2.90
2013,04,22,00,45,2.90
2013,04,22,00,46,2.80
2013,04,22,00,47,2.80
2013,04,22,00,48,2.80
2013,04,22,00,49,2.80
2013,04,22,00,50,2.80
2013,04,22,00,51,2.80
2013,04,22,00,52,2.80
2013,04,22,00,53,2.70
2013,04,22,00,54,2.70
2013,04,22,00,55,2.70
2013,04,22,00,56,2.70
2013,04,22,00,57,2.70
2013,04,22,00,58,2.60
2013,04,22,00,59,2.60
2013,04,22,01,00,2.60
2013,04,22,01,01,2.60
2013,04,22,01,02,2.60
2013,04,22,01,03,2.60
2013,04,22,01,04,2.60
2013,04,22,01,05,2.60
2013,04,22,01,06,2.50
2013,04,22,01,07,2.60
2013,04,22,01,08,2.60
2013,04,22,01,09,2.60
2013,04,22,01,10,2.60
2013,04,22,01,11,2.60
2013,04,22,01,12,2.60
2013,04,22,01,13,2.60
2013,04,22,01,14,2.60
2013,04,22,01,15,2.70
2013,04,22,01,16,2.60
2013,04,22,01,17,2.70
2013,04,22,01,18,2.70
2013,04,22,01,19,2.70
2013,04,22,01,20,2.70
2013,04,22,01,21,2.70
2013,04,22,01,22,2.70
2013,04,22,01,23,2.70
2013,04,22,01,24,2.70
2013,04,22,01,25,2.70
2013,04,22,01,26,2.70
2013,04,22,01,27,2.80
2013,04,22,01,28,2.80
2013,04,22,01,29,2.80
2013,04,22,01,30,2.80
2013,04,22,01,31,2.80
2013,04,22,01,32,2.80
2013,04,22,01,33,2.80
2013,04,22,01,34,2.80
2013,04,22,01,35,2.80
2013,04,22,01,36,2.70
2013,04,22,01,37,2.70
2013,04,22,01,38,2.70
2013,04,22,01,39,2.70
2013,04,22,01,40,2.70
2013,04,22,01,41,2.70
2013,04,22,01,42,2.70
2013,04,22,01,43,2.70
2013,04,22,01,44,2.70
2013,04,22,01,45,2.60
2013,04,22,01,46,2.60
2013,04,22,01,47,2.70
2013,04,22,01,48,2.70
2013,04,22,01,49,2.70
2013,04,22,01,50,2.70
2013,04,22,01,51,2.70
2013,04,22,01,52,2.70
2013,04,22,01,53,2.60
2013,04,22,01,54,2.60
2013,04,22,01,55,2.60
2013,04,22,01,56,2.60
2013,04,22,01,57,2.60
2013,04,22,01,58,2.60
2013,04,22,01,59,2.50
2013,04,22,02,00,2.50
2013,04,22,02,01,2.50
2013,04,22,02,02,2.40
2013,04,22,02,03,2.40
2013,04,22,02,04,2.40
2013,04,22,02,05,2.40
2013,04,22,02,06,2.30
2013,04,22,02,07,2.30
2013,04,22,02,08,2.30
2013,04,22,02,09,2.30
2013,04,22,02,10,2.20
2013,04,22,02,11,2.20
2013,04,22,02,12,2.20
2013,04,22,02,13,2.20
2013,04,22,02,14,2.20
2013,04,22,02,15,2.20
2013,04,22,02,16,2.20
2013,04,22,02,17,2.20
2013,04,22,02,18,2.20
2013,04,22,02,19,2.20
2013,04,22,02,20,2.20
2013,04,22,02,21,2.20
2013,04,22,02,22,2.20
2013,04,22,02,23,2.20
2013,04,22,02,24,2.20
2013,04,22,02,25,2.20
2013,04,22,02,26,2.20
2013,04,22,02,27,2.20
2013,04,22,02,28,2.20
2013,04,22,02,29,2.20
2013,04,22,02,30,2.20
2013,04,22,02,31,2.20
2013,04,22,02,32,2.20
2013,04,22,02,33,2.10
2013,04,22,02,34,2.10
2013,04,22,02,35,2.10
2013,04,22,02,36,2.10
2013,04,22,02,37,2.10
2013,04,22,02,38,2.10
2013,04,22,02,39,2.10
2013,04,22,02,40,2.10
2013,04,22,02,41,2.10
2013,04,22,02,42,2.00
2013,04,22,02,43,2.00
2013,04,22,02,44,2.00
2013,04,22,02,45,2.00
2013,04,22,02,46,2.00
2013,04,22,02,47,1.90
2013,04,22,02,48,1.90
2013,04,22,02,49,1.90
2013,04,22,02,50,1.90
2013,04,22,02,51,1.90
2013,04,22,02,52,1.80
2013,04,22,02,53,1.80
2013,04,22,02,54,1.80
2013,04,22,02,55,1.80
2013,04,22,02,56,1.80
2013,04,22,02,57,1.80
2013,04,22,02,58,1.70
2013,04,22,02,59,1.70
2013,04,22,03,00,1.70
2013,04,22,03,01,1.70
2013,04,22,03,02,1.70
2013,04,22,03,03,1.60
2013,04,22,03,04,1.60
2013,04,22,03,05,1.60
2013,04,22,03,06,1.60
2013,04,22,03,07,1.60
2013,04,22,03,08,1.60
2013,04,22,03,09,1.60
2013,04,22,03,10,1.60
2013,04,22,03,11,1.60
2013,04,22,03,12,1.60
2013,04,22,03,13,1.60
2013,04,22,03,14,1.60
2013,04,22,03,15,1.60
2013,04,22,03,16,1.60
2013,04,22,03,17,1.60
2013,04,22,03,18,1.60
2013,04,22,03,19,1.70
2013,04,22,03,20,1.70
2013,04,22,03,21,1.70
2013,04,22,03,22,1.70
2013,04,22,03,23,1.70
2013,04,22,03,24,1.70
2013,04,22,03,25,1.70
2013,04,22,03,26,1.60
2013,04,22,03,27,1.60
2013,04,22,03,28,1.60
2013,04,22,03,29,1.60
2013,04,22,03,30,1.60
2013,04,22,03,31,1.60
2013,04,22,03,32,1.60
2013,04,22,03,33,1.60
2013,04,22,03,34,1.60
2013,04,22,03,35,1.60
2013,04,22,03,36,1.60
2013,04,22,03,37,1.60
2013,04,22,03,38,1.60
2013,04,22,03,39,1.60
2013,04,22,03,40,1.60
2013,04,22,03,41,1.60
2013,04,22,03,42,1.60
2013,04,22,03,43,1.60
2013,04,22,03,44,1.60
2013,04,22,03,45,1.60
2013,04,22,03,46,1.60
2013,04,22,03,47,1.60
2013,04,22,03,48,1.60
2013,04,22,03,49,1.60
2013,04,22,03,50,1.60
2013,04,22,03,51,1.60
2013,04,22,03,52,1.50
2013,04,22,03,53,1.50
2013,04,22,03,54,1.50
2013,04,22,03,55,1.40
2013,04,22,03,56,1.40
2013,04,22,03,57,1.40
2013,04,22,03,58,1.40
2013,04,22,03,59,1.40
2013,04,22,04,00,1.40
2013,04,22,04,01,1.30
2013,04,22,04,02,1.30
2013,04,22,04,03,1.30
2013,04,22,04,04,1.30
2013,04,22,04,05,1.30
2013,04,22,04,06,1.30
2013,04,22,04,07,1.20
2013,04,22,04,08,1.20
2013,04,22,04,09,1.20
2013,04,22,04,10,1.20
2013,04,22,04,11,1.20
2013,04,22,04,12,1.20
2013,04,22,04,13,1.20
2013,04,22,04,14,1.10
2013,04,22,04,15,1.10
2013,04,22,04,16,1.10
2013,04,22,04,17,1.10
2013,04,22,04,18,1.10
2013,04,22,04,19,1.10
2013,04,22,04,20,1.10
2013,04,22,04,21,1.10
2013,04,22,04,22,1.10
2013,04,22,04,23,1.10
2013,04,22,04,24,1.10
2013,04,22,04,25,1.10
2013,04,22,04,26,1.10
2013,04,22,04,27,1.10
2013,04,22,04,28,1.10
2013,04,22,04,29,1.10
2013,04,22,04,30,1.10
2013,04,22,04,31,1.10
2013,04,22,04,32,1.10
2013,04,22,04,33,1.10
2013,04,22,04,34,1.10
2013,04,22,04,35,1.10
2013,04,22,04,36,1.00
2013,04,22,04,37,1.00
2013,04,22,04,38,1.00
2013,04,22,04,39,1.00
2013,04,22,04,40,1.00
2013,04,22,04,41,1.00
2013,04,22,04,42,1.00
2013,04,22,04,43,1.00
2013,04,22,04,44,1.00
2013,04,22,04,45,0.90
2013,04,22,04,46,0.90
2013,04,22,04,47,0.90
2013,04,22,04,48,0.90
2013,04,22,04,49,0.90
2013,04,22,04,50,0.90
2013,04,22,04,51,0.90
2013,04,22,04,52,0.90
2013,04,22,04,53,0.90
2013,04,22,04,54,0.90
2013,04,22,04,55,0.90
2013,04,22,04,56,0.90
2013,04,22,04,57,0.90
2013,04,22,04,58,0.90
2013,04,22,04,59,0.90
2013,04,22,05,00,0.90
2013,04,22,05,01,0.90
2013,04,22,05,02,0.90
2013,04,22,05,03,0.80
2013,04,22,05,04,0.80
2013,04,22,05,05,0.80
2013,04,22,05,06,0.80
2013,04,22,05,07,0.80
2013,04,22,05,08,0.80
2013,04,22,05,09,0.80
2013,04,22,05,10,0.80
2013,04,22,05,11,0.80
2013,04,22,05,12,0.80
2013,04,22,05,13,0.80
2013,04,22,05,14,0.80
2013,04,22,05,15,0.80
2013,04,22,05,16,0.80
2013,04,22,05,17,0.80
2013,04,22,05,18,0.80
2013,04,22,05,19,0.70
2013,04,22,05,20,0.70
2013,04,22,05,21,0.70
2013,04,22,05,22,0.70
2013,04,22,05,23,0.70
2013,04,22,05,24,0.70
2013,04,22,05,25,0.70
2013,04,22,05,26,0.70
2013,04,22,05,27,0.70
2013,04,22,05,28,0.70
2013,04,22,05,29,0.70
2013,04,22,05,30,0.70
2013,04,22,05,31,0.80
2013,04,22,05,32,0.80
2013,04,22,05,33,0.80
2013,04,22,05,34,0.80
2013,04,22,05,35,0.80
2013,04,22,05,36,0.80
2013,04,22,05,37,0.80
2013,04,22,05,38,0.90
2013,04,22,05,39,0.90
2013,04,22,05,40,0.80
2013,04,22,05,41,0.80
2013,04,22,05,42,0.80
2013,04,22,05,43,0.80
2013,04,22,05,44,0.80
2013,04,22,05,45,0.80
2013,04,22,05,46,0.80
2013,04,22,05,47,0.80
2013,04,22,05,48,0.80
2013,04,22,05,49,0.80
2013,04,22,05,50,0.80
2013,04,22,05,51,0.80
2013,04,22,05,52,0.80
2013,04,22,05,53,0.80
2013,04,22,05,54,0.80
2013,04,22,05,55,0.80
2013,04,22,05,56,0.80
2013,04,22,05,57,0.80
2013,04,22,05,58,0.80
2013,04,22,05,59,0.80
2013,04,22,06,00,0.80
2013,04,22,06,01,0.80
2013,04,22,06,02,0.90
2013,04,22,06,03,0.90
2013,04,22,06,04,0.90
2013,04,22,06,05,0.90
2013,04,22,06,06,0.90
2013,04,22,06,07,0.90
2013,04,22,06,08,0.90
2013,04,22,06,09,0.80
2013,04,22,06,10,0.80
2013,04,22,06,11,0.80
2013,04,22,06,12,0.80
2013,04,22,06,13,0.80
2013,04,22,06,14,0.80
2013,04,22,06,15,0.80
2013,04,22,06,16,0.80
2013,04,22,06,17,0.90
2013,04,22,06,18,0.90
2013,04,22,06,19,0.90
2013,04,22,06,20,0.90
2013,04,22,06,21,0.90
2013,04,22,06,22,0.90
2013,04,22,06,23,0.90
2013,04,22,06,24,0.90
2013,04,22,06,25,0.90
2013,04,22,06,26,0.90
2013,04,22,06,27,0.90
2013,04,22,06,28,0.90
2013,04,22,06,29,0.90
2013,04,22,06,30,0.90
2013,04,22,06,31,0.90
2013,04,22,06,32,0.90
2013,04,22,06,33,0.90
2013,04,22,06,34,0.90
2013,04,22,06,35,0.90
2013,04,22,06,36,1.00
2013,04,22,06,37,1.00
2013,04,22,06,38,1.10
2013,04,22,06,39,1.10
2013,04,22,06,40,1.10
2013,04,22,06,41,1.10
2013,04,22,06,42,1.10
2013,04,22,06,43,1.10
2013,04,22,06,44,1.10
2013,04,22,06,45,1.20
2013,04,22,06,46,1.20
2013,04,22,06,47,1.20
2013,04,22,06,48,1.10
2013,04,22,06,49,1.10
2013,04,22,06,50,1.10
2013,04,22,06,51,1.10
2013,04,22,06,52,1.10
2013,04,22,06,53,1.10
2013,04,22,06,54,1.10
2013,04,22,06,55,1.10
2013,04,22,06,56,1.10
2013,04,22,06,57,1.10
2013,04,22,06,58,1.10
2013,04,22,06,59,1.10
2013,04,22,07,00,1.20
2013,04,22,07,01,1.20
2013,04,22,07,02,1.20
2013,04,22,07,03,1.20
2013,04,22,07,04,1.20
2013,04,22,07,05,1.30
2013,04,22,07,06,1.30
2013,04,22,07,07,1.30
2013,04,22,07,08,1.30
2013,04,22,07,09,1.30
2013,04,22,07,10,1.20
2013,04,22,07,11,1.20
2013,04,22,07,12,1.20
2013,04,22,07,13,1.20
2013,04,22,07,14,1.20
2013,04,22,07,15,1.30
2013,04,22,07,16,1.30
2013,04,22,07,17,1.30
2013,04,22,07,18,1.30
2013,04,22,07,19,1.40
2013,04,22,07,20,1.40
2013,04,22,07,21,1.40
2013,04,22,07,22,1.50
2013,04,22,07,23,1.50
2013,04,22,07,24,1.60
2013,04,22,07,25,1.60
2013,04,22,07,26,1.70
2013,04,22,07,27,1.70
2013,04,22,07,28,1.80
2013,04,22,07,29,1.80
2013,04,22,07,30,1.90
2013,04,22,07,31,1.90
2013,04,22,07,32,1.90
2013,04,22,07,33,2.00
2013,04,22,07,34,2.00
2013,04,22,07,35,2.10
2013,04,22,07,36,2.10
2013,04,22,07,37,2.20
2013,04,22,07,38,2.20
2013,04,22,07,39,2.30
2013,04,22,07,40,2.30
2013,04,22,07,41,2.30
2013,04,22,07,42,2.30
2013,04,22,07,43,2.40
2013,04,22,07,44,2.40
2013,04,22,07,45,2.50
2013,04,22,07,46,2.60
2013,04,22,07,47,2.70
2013,04,22,07,48,2.70
2013,04,22,07,49,2.70
2013,04,22,07,50,2.70
2013,04,22,07,51,2.70
2013,04,22,07,52,2.80
2013,04,22,07,53,2.80
2013,04,22,07,54,2.80
2013,04,22,07,55,2.80
2013,04,22,07,56,2.80
2013,04,22,07,57,2.90
2013,04,22,07,58,3.00
2013,04,22,07,59,3.00
2013,04,22,08,00,3.10
2013,04,22,08,01,3.20
2013,04,22,08,02,3.30
2013,04,22,08,03,3.30
2013,04,22,08,04,3.40
2013,04,22,08,05,3.50
2013,04,22,08,06,3.50
2013,04,22,08,07,3.60
2013,04,22,08,08,3.60
2013,04,22,08,09,3.70
2013,04,22,08,10,3.80
2013,04,22,08,11,3.80
2013,04,22,08,12,3.90
2013,04,22,08,13,4.00
2013,04,22,08,14,4.10
2013,04,22,08,15,4.20
2013,04,22,08,16,4.20
2013,04,22,08,17,4.30
2013,04,22,08,18,4.30
2013,04,22,08,19,4.30
2013,04,22,08,20,4.30
2013,04,22,08,21,4.40
2013,04,22,08,22,4.40
2013,04,22,08,23,4.50
2013,04,22,08,24,4.50
2013,04,22,08,25,4.60
2013,04,22,08,26,4.60
2013,04,22,08,27,4.60
2013,04,22,08,28,4.70
2013,04,22,08,29,4.70
2013,04,22,08,30,4.80
2013,04,22,08,31,4.80
2013,04,22,08,32,4.90
2013,04,22,08,33,4.90
2013,04,22,08,34,5.00
2013,04,22,08,35,5.10
2013,04,22,08,36,5.10
2013,04,22,08,37,5.20
2013,04,22,08,38,5.20
2013,04,22,08,39,5.20
2013,04,22,08,40,5.30
2013,04,22,08,41,5.30
2013,04,22,08,42,5.30
2013,04,22,08,43,5.30
2013,04,22,08,44,5.30
2013,04,22,08,45,5.30
2013,04,22,08,46,5.40
2013,04,22,08,47,5.40
2013,04,22,08,48,5.40
2013,04,22,08,49,5.30
2013,04,22,08,50,5.30
2013,04,22,08,51,5.30
2013,04,22,08,52,5.30
2013,04,22,08,53,5.40
2013,04,22,08,54,5.40
2013,04,22,08,55,5.50
2013,04,22,08,56,5.50
2013,04,22,08,57,5.60
2013,04,22,08,58,5.60
2013,04,22,08,59,5.60
2013,04,22,09,00,5.70
2013,04,22,09,01,5.70
2013,04,22,09,02,5.70
2013,04,22,09,03,5.70
2013,04,22,09,04,5.70
2013,04,22,09,05,5.80
2013,04,22,09,06,5.80
2013,04,22,09,07,5.90
2013,04,22,09,08,6.00
2013,04,22,09,09,6.00
2013,04,22,09,10,6.00
2013,04,22,09,11,6.00
2013,04,22,09,12,6.00
2013,04,22,09,13,6.30
2013,04,22,09,14,6.40
2013,04,22,09,15,6.40
2013,04,22,09,16,6.50
2013,04,22,09,17,6.60
2013,04,22,09,18,6.80
2013,04,22,09,19,6.90
2013,04,22,09,20,7.00
2013,04,22,09,21,7.10
2013,04,22,09,22,7.20
2013,04,22,09,23,7.40
2013,04,22,09,24,7.50
2013,04,22,09,25,7.60
2013,04,22,09,26,7.70
2013,04,22,09,27,7.80
2013,04,22,09,28,7.90
2013,04,22,09,29,8.00
2013,04,22,09,30,8.10
2013,04,22,09,31,8.10
2013,04,22,09,32,8.20
2013,04,22,09,33,8.20
2013,04,22,09,34,8.30
2013,04,22,09,35,8.30
2013,04,22,09,36,8.40
2013,04,22,09,37,8.40
2013,04,22,09,38,8.40
2013,04,22,09,39,8.30
2013,04,22,09,40,8.30
2013,04,22,09,41,8.40
2013,04,22,09,42,8.40
2013,04,22,09,43,8.50
2013,04,22,09,44,8.60
2013,04,22,09,45,8.70
2013,04,22,09,46,8.80
2013,04,22,09,47,8.80
2013,04,22,09,48,8.90
2013,04,22,09,49,8.90
2013,04,22,09,50,9.00
2013,04,22,09,51,9.10
2013,04,22,09,52,9.20
2013,04,22,09,53,9.30
2013,04,22,09,54,9.30
2013,04,22,09,55,9.40
2013,04,22,09,56,9.50
2013,04,22,09,57,9.60
2013,04,22,09,58,9.70
2013,04,22,09,59,9.70
2013,04,22,10,00,9.80
2013,04,22,10,01,9.80
2013,04,22,10,02,9.80
2013,04,22,10,03,9.90
2013,04,22,10,04,10.00
2013,04,22,10,05,10.10
2013,04,22,10,06,10.10
2013,04,22,10,07,10.20
2013,04,22,10,08,10.30
2013,04,22,10,09,10.30
2013,04,22,10,10,10.30
2013,04,22,10,11,10.40
2013,04,22,10,12,10.40
2013,04,22,10,13,10.30
2013,04,22,10,14,10.30
2013,04,22,10,15,10.30
2013,04,22,10,16,10.30
2013,04,22,10,17,10.30
2013,04,22,10,18,10.30
2013,04,22,10,19,10.30
2013,04,22,10,20,10.30
2013,04,22,10,21,10.30
2013,04,22,10,22,10.30
2013,04,22,10,23,10.30
2013,04,22,10,24,10.30
2013,04,22,10,25,10.40
2013,04,22,10,26,10.50
2013,04,22,10,27,10.50
2013,04,22,10,28,10.60
2013,04,22,10,29,10.70
2013,04,22,10,30,10.70
2013,04,22,10,31,10.80
2013,04,22,10,32,10.80
2013,04,22,10,33,10.80
2013,04,22,10,34,10.80
2013,04,22,10,35,10.80
2013,04,22,10,36,10.80
2013,04,22,10,37,10.90
2013,04,22,10,38,11.00
2013,04,22,10,39,11.00
2013,04,22,10,40,11.00
2013,04,22,10,41,11.00
2013,04,22,10,42,10.90
2013,04,22,10,43,10.80
2013,04,22,10,44,10.60
2013,04,22,10,45,10.50
2013,04,22,10,46,10.40
2013,04,22,10,47,10.30
2013,04,22,10,48,10.30
2013,04,22,10,49,10.20
2013,04,22,10,50,10.20
2013,04,22,10,51,10.20
2013,04,22,10,52,10.20
2013,04,22,10,53,10.30
2013,04,22,10,54,10.30
2013,04,22,10,55,10.40
2013,04,22,10,56,10.40
2013,04,22,10,57,10.40
2013,04,22,10,58,10.40
2013,04,22,10,59,10.40
2013,04,22,11,00,10.40
2013,04,22,11,01,10.40
2013,04,22,11,02,10.30
2013,04,22,11,03,10.30
2013,04,22,11,04,10.40
2013,04,22,11,05,10.50
2013,04,22,11,06,10.60
2013,04,22,11,07,10.60
2013,04,22,11,08,10.70
2013,04,22,11,09,10.70
2013,04,22,11,10,10.70
2013,04,22,11,11,10.70
2013,04,22,11,12,10.80
2013,04,22,11,13,10.80
2013,04,22,11,14,10.90
2013,04,22,11,15,11.00
2013,04,22,11,16,11.00
2013,04,22,11,17,11.10
2013,04,22,11,18,11.20
2013,04,22,11,19,11.20
2013,04,22,11,20,11.30
2013,04,22,11,21,11.40
2013,04,22,11,22,11.50
2013,04,22,11,23,11.60
2013,04,22,11,24,11.70
2013,04,22,11,25,11.80
2013,04,22,11,26,11.90
2013,04,22,11,27,12.00
2013,04,22,11,28,12.00
2013,04,22,11,29,12.10
2013,04,22,11,30,12.10
2013,04,22,11,31,12.20
2013,04,22,11,32,12.20
2013,04,22,11,33,12.20
2013,04,22,11,34,12.20
2013,04,22,11,35,12.20
2013,04,22,11,36,12.20
2013,04,22,11,37,12.30
2013,04,22,11,38,12.30
2013,04,22,11,39,12.40
2013,04,22,11,40,12.40
2013,04,22,11,41,12.40
2013,04,22,11,42,12.40
2013,04,22,11,43,12.50
2013,04,22,11,44,12.60
2013,04,22,11,45,12.60
2013,04,22,11,46,12.70
2013,04,22,11,47,12.80
2013,04,22,11,48,12.80
2013,04,22,11,49,12.80
2013,04,22,11,50,12.80
2013,04,22,11,51,12.80
2013,04,22,11,52,12.70
2013,04,22,11,53,12.80
2013,04,22,11,54,12.80
2013,04,22,11,55,12.80
2013,04,22,11,56,12.80
2013,04,22,11,57,12.80
2013,04,22,11,58,12.90
2013,04,22,11,59,12.90
2013,04,22,12,00,12.90
2013,04,22,12,01,12.80
2013,04,22,12,02,12.80
2013,04,22,12,03,12.70
2013,04,22,12,04,12.70
2013,04,22,12,05,12.70
2013,04,22,12,06,12.70
2013,04,22,12,07,12.70
2013,04,22,12,08,12.80
2013,04,22,12,09,12.80
2013,04,22,12,10,12.90
2013,04,22,12,11,12.90
2013,04,22,12,12,13.00
2013,04,22,12,13,13.00
2013,04,22,12,14,13.00
2013,04,22,12,15,13.00
2013,04,22,12,16,13.10
2013,04,22,12,17,13.20
2013,04,22,12,18,13.20
2013,04,22,12,19,13.10
2013,04,22,12,20,13.00
2013,04,22,12,21,12.90
2013,04,22,12,22,12.80
2013,04,22,12,23,12.80
2013,04,22,12,24,12.80
2013,04,22,12,25,12.80
2013,04,22,12,26,12.80
2013,04,22,12,27,12.80
2013,04,22,12,28,12.80
2013,04,22,12,29,12.80
2013,04,22,12,30,12.80
2013,04,22,12,31,12.80
2013,04,22,12,32,12.80
2013,04,22,12,33,12.70
2013,04,22,12,34,12.70
2013,04,22,12,35,12.60
2013,04,22,12,36,12.50
2013,04,22,12,37,12.40
2013,04,22,12,38,12.20
2013,04,22,12,39,12.20
2013,04,22,12,40,12.20
2013,04,22,12,41,12.10
2013,04,22,12,42,12.10
2013,04,22,12,43,12.10
2013,04,22,12,44,12.10
2013,04,22,12,45,12.20
2013,04,22,12,46,12.30
2013,04,22,12,47,12.30
2013,04,22,12,48,12.40
2013,04,22,12,49,12.50
2013,04,22,12,50,12.50
2013,04,22,12,51,12.40
2013,04,22,12,52,12.40
2013,04,22,12,53,12.30
2013,04,22,12,54,12.30
2013,04,22,12,55,12.30
2013,04,22,12,56,12.30
2013,04,22,12,57,12.20
2013,04,22,12,58,12.20
2013,04,22,12,59,12.20
2013,04,22,13,00,12.20
2013,04,22,13,01,12.10
2013,04,22,13,02,12.10
2013,04,22,13,03,12.10
2013,04,22,13,04,12.20
2013,04,22,13,05,12.30
2013,04,22,13,06,12.40
2013,04,22,13,07,12.50
2013,04,22,13,08,12.50
2013,04,22,13,09,12.60
2013,04,22,13,10,12.60
2013,04,22,13,11,12.60
2013,04,22,13,12,12.60
2013,04,22,13,13,12.50
2013,04,22,13,14,12.40
2013,04,22,13,15,12.30
2013,04,22,13,16,12.30
2013,04,22,13,17,12.30
2013,04,22,13,18,12.40
2013,04,22,13,19,12.50
2013,04,22,13,20,12.60
2013,04,22,13,21,12.60
2013,04,22,13,22,12.60
2013,04,22,13,23,12.60
2013,04,22,13,24,12.50
2013,04,22,13,25,12.60
2013,04,22,13,26,12.60
2013,04,22,13,27,12.70
2013,04,22,13,28,12.70
2013,04,22,13,29,12.70
2013,04,22,13,30,12.70
2013,04,22,13,31,12.80
2013,04,22,13,32,12.80
2013,04,22,13,33,12.90
2013,04,22,13,34,13.00
2013,04,22,13,35,13.10
2013,04,22,13,36,13.10
2013,04,22,13,37,13.10
2013,04,22,13,38,13.00
2013,04,22,13,39,13.00
2013,04,22,13,40,13.10
2013,04,22,13,41,13.10
2013,04,22,13,42,13.10
2013,04,22,13,43,13.00
2013,04,22,13,44,13.00
2013,04,22,13,45,12.90
2013,04,22,13,46,12.90
2013,04,22,13,47,12.90
2013,04,22,13,48,12.80
2013,04,22,13,49,12.80
2013,04,22,13,50,12.80
2013,04,22,13,51,12.80
2013,04,22,13,52,12.80
2013,04,22,13,53,12.80
2013,04,22,13,54,12.80
2013,04,22,13,55,12.80
2013,04,22,13,56,12.80
2013,04,22,13,57,12.80
2013,04,22,13,58,12.80
2013,04,22,13,59,12.80
2013,04,22,14,00,12.80
2013,04,22,14,01,12.80
2013,04,22,14,02,12.80
2013,04,22,14,03,12.90
2013,04,22,14,04,13.00
2013,04,22,14,05,13.00
2013,04,22,14,06,13.10
2013,04,22,14,07,13.20
2013,04,22,14,08,13.30
2013,04,22,14,09,13.30
2013,04,22,14,10,13.30
2013,04,22,14,11,13.30
2013,04,22,14,12,13.40
2013,04,22,14,13,13.50
2013,04,22,14,14,13.50
2013,04,22,14,15,13.50
2013,04,22,14,16,13.50
2013,04,22,14,17,13.50
2013,04,22,14,18,13.50
2013,04,22,14,19,13.50
2013,04,22,14,20,13.50
2013,04,22,14,21,13.40
2013,04,22,14,22,13.40
2013,04,22,14,23,13.40
2013,04,22,14,24,13.40
2013,04,22,14,25,13.40
2013,04,22,14,26,13.40
2013,04,22,14,27,13.40
2013,04,22,14,28,13.50
2013,04,22,14,29,13.70
2013,04,22,14,30,13.70
2013,04,22,14,31,13.80
2013,04,22,14,32,13.90
2013,04,22,14,33,14.00
2013,04,22,14,34,14.10
2013,04,22,14,35,14.20
2013,04,22,14,36,14.10
2013,04,22,14,37,14.10
2013,04,22,14,38,14.10
2013,04,22,14,39,14.10
2013,04,22,14,40,14.10
2013,04,22,14,41,14.10
2013,04,22,14,42,14.10
2013,04,22,14,43,14.20
2013,04,22,14,44,14.20
2013,04,22,14,45,14.20
2013,04,22,14,46,14.20
2013,04,22,14,47,14.20
2013,04,22,14,48,14.20
2013,04,22,14,49,14.20
2013,04,22,14,50,14.20
2013,04,22,14,51,14.20
2013,04,22,14,52,14.20
2013,04,22,14,53,14.20
2013,04,22,14,54,14.20
2013,04,22,14,55,14.10
2013,04,22,14,56,14.10
2013,04,22,14,57,14.20
2013,04,22,14,58,14.20
2013,04,22,14,59,14.20
2013,04,22,15,00,14.20
2013,04,22,15,01,14.20
2013,04,22,15,02,14.20
2013,04,22,15,03,14.20
2013,04,22,15,04,14.20
2013,04,22,15,05,14.20
2013,04,22,15,06,14.20
2013,04,22,15,07,14.30
2013,04,22,15,08,14.40
2013,04,22,15,09,14.50
2013,04,22,15,10,14.60
2013,04,22,15,11,14.60
2013,04,22,15,12,14.60
2013,04,22,15,13,14.50
2013,04,22,15,14,14.50
2013,04,22,15,15,14.40
2013,04,22,15,16,14.40
2013,04,22,15,17,14.40
2013,04,22,15,18,14.40
2013,04,22,15,19,14.40
2013,04,22,15,20,14.40
2013,04,22,15,21,14.40
2013,04,22,15,22,14.40
2013,04,22,15,23,14.30
2013,04,22,15,24,14.20
2013,04,22,15,25,14.20
2013,04,22,15,26,14.20
2013,04,22,15,27,14.10
2013,04,22,15,28,14.10
2013,04,22,15,29,14.00
2013,04,22,15,30,14.00
2013,04,22,15,31,13.90
2013,04,22,15,32,13.90
2013,04,22,15,33,13.90
2013,04,22,15,34,13.90
2013,04,22,15,35,13.90
2013,04,22,15,36,13.90
2013,04,22,15,37,13.90
2013,04,22,15,38,13.90
2013,04,22,15,39,13.90
2013,04,22,15,40,14.00
2013,04,22,15,41,14.10
2013,04,22,15,42,14.10
2013,04,22,15,43,14.10
2013,04,22,15,44,14.20
2013,04,22,15,45,14.20
2013,04,22,15,46,14.20
2013,04,22,15,47,14.10
2013,04,22,15,48,14.10
2013,04,22,15,49,14.20
2013,04,22,15,50,14.20
2013,04,22,15,51,14.20
2013,04,22,15,52,14.20
2013,04,22,15,53,14.20
2013,04,22,15,54,14.10
2013,04,22,15,55,14.10
2013,04,22,15,56,14.10
2013,04,22,15,57,14.10
2013,04,22,15,58,14.10
2013,04,22,15,59,14.00
2013,04,22,16,00,14.00
2013,04,22,16,01,14.00
2013,04,22,16,02,14.00
2013,04,22,16,03,14.10
2013,04,22,16,04,14.10
2013,04,22,16,05,14.20
2013,04,22,16,06,14.30
2013,04,22,16,07,14.30
2013,04,22,16,08,14.40
2013,04,22,16,09,14.40
2013,04,22,16,10,14.40
2013,04,22,16,11,14.40
2013,04,22,16,12,14.40
2013,04,22,16,13,14.30
2013,04,22,16,14,14.30
2013,04,22,16,15,14.30
2013,04,22,16,16,14.30
2013,04,22,16,17,14.30
2013,04,22,16,18,14.30
2013,04,22,16,19,14.30
2013,04,22,16,20,14.30
2013,04,22,16,21,14.30
2013,04,22,16,22,14.30
2013,04,22,16,23,14.30
2013,04,22,16,24,14.30
2013,04,22,16,25,14.30
2013,04,22,16,26,14.30
2013,04,22,16,27,14.20
2013,04,22,16,28,14.20
2013,04,22,16,29,14.10
2013,04,22,16,30,14.00
2013,04,22,16,31,14.00
2013,04,22,16,32,14.00
2013,04,22,16,33,14.10
2013,04,22,16,34,14.10
2013,04,22,16,35,14.20
2013,04,22,16,36,14.20
2013,04,22,16,37,14.20
2013,04,22,16,38,14.20
2013,04,22,16,39,14.30
2013,04,22,16,40,14.30
2013,04,22,16,41,14.40
2013,04,22,16,42,14.40
2013,04,22,16,43,14.50
2013,04,22,16,44,14.60
2013,04,22,16,45,14.60
2013,04,22,16,46,14.70
2013,04,22,16,47,14.70
2013,04,22,16,48,14.70
2013,04,22,16,49,14.60
2013,04,22,16,50,14.60
2013,04,22,16,51,14.50
2013,04,22,16,52,14.50
2013,04,22,16,53,14.50
2013,04,22,16,54,14.50
2013,04,22,16,55,14.50
2013,04,22,16,56,14.40
2013,04,22,16,57,14.30
2013,04,22,16,58,14.30
2013,04,22,16,59,14.30
2013,04,22,17,00,14.30
2013,04,22,17,01,14.20
2013,04,22,17,02,14.20
2013,04,22,17,03,14.10
2013,04,22,17,04,14.10
2013,04,22,17,05,14.00
2013,04,22,17,06,13.90
2013,04,22,17,07,13.80
2013,04,22,17,08,13.80
2013,04,22,17,09,13.70
2013,04,22,17,10,13.70
2013,04,22,17,11,13.60
2013,04,22,17,12,13.60
2013,04,22,17,13,13.60
2013,04,22,17,14,13.60
2013,04,22,17,15,13.50
2013,04,22,17,16,13.50
2013,04,22,17,17,13.40
2013,04,22,17,18,13.40
2013,04,22,17,19,13.30
2013,04,22,17,20,13.30
2013,04,22,17,21,13.30
2013,04,22,17,22,13.20
2013,04,22,17,23,13.30
2013,04,22,17,24,13.30
2013,04,22,17,25,13.30
2013,04,22,17,26,13.30
2013,04,22,17,27,13.20
2013,04,22,17,28,13.20
2013,04,22,17,29,13.20
2013,04,22,17,30,13.20
2013,04,22,17,31,13.20
2013,04,22,17,32,13.20
2013,04,22,17,33,13.30
2013,04,22,17,34,13.30
2013,04,22,17,35,13.30
2013,04,22,17,36,13.30
2013,04,22,17,37,13.30
2013,04,22,17,38,13.40
2013,04,22,17,39,13.30
2013,04,22,17,40,13.30
2013,04,22,17,41,13.30
2013,04,22,17,42,13.30
2013,04,22,17,43,13.30
2013,04,22,17,44,13.30
2013,04,22,17,45,13.30